Location: Doschendorf
(50.0069°N, 11.0602°E)
Time: 11:59:37
(UTC+00:00)

NOAA 12 - Pass Details

Date: 23 February 2020
Orbit: 795 x 815 km, 98.5° (Epoch: 05 April)

Event Time Altitude Azimuth Distance (km) Brightness Sun altitude
Rises 17:32:02 0° 185° (S) 3,310 7.4 -8.0°
Reaches altitude 10° 17:34:29 10° 193° (SSW) 2,387 6.8 -8.4°
Maximum altitude 17:39:27 41° 263° (W) 1,175 5.7 -9.2°
Drops below altitude 10° 17:44:28 10° 333° (NNW) 2,414 6.9 -10.0°
Sets 17:46:59 0° 341° (NNW) 3,352 7.5 -10.4°
